NSZ3530 EKCH-LMML

Flight info

Callsign NSZ3530
Flight time 2h 53m
Altitude 35000
Route SALLO M44 KOGIM M602 USEDU/N0439F360 DCT ADLIR/N0439F350 DCT OSKAN DCT MAREM/N0439F360 DCT RUDAP DCT BAMTA DCT RADIZ/N0439F350 DCT OKUNO DCT NEKPI DCT MARON/N0345F190 L12 GZO
Aircraft B738/M-SDE3GHIJ1LRWXY/SB1

Departure

Time 2026-04-24 10:12
Airport Copenhagen Kastrup Airport (EKCH)

Arrival

Time 2026-04-24 13:06
Airport Malta International Airport (LMML)
Time Latitude Longitude Altitude Speed Heading
2026-04-24 09:16 55.62573 12.65046 23 ft 0 kts 268°
2026-04-24 09:58 55.62574 12.65084 24 ft 4 kts 266°
2026-04-24 09:58 55.62577 12.65132 28 ft 4 kts 256°
2026-04-24 09:58 55.62586 12.65173 28 ft 4 kts 220°
2026-04-24 09:59 55.62597 12.65184 28 ft 0 kts 180°
2026-04-24 10:04 55.62594 12.65184 23 ft 2 kts 180°
2026-04-24 10:04 55.62568 12.65184 25 ft 6 kts 180°
2026-04-24 10:04 55.62511 12.65184 23 ft 10 kts 180°
2026-04-24 10:04 55.62438 12.65199 26 ft 10 kts 175°
2026-04-24 10:05 55.62338 12.65204 23 ft 12 kts 181°
2026-04-24 10:05 55.62283 12.65197 26 ft 12 kts 184°
2026-04-24 10:05 55.62205 12.65173 23 ft 11 kts 209°
2026-04-24 10:05 55.62136 12.65095 23 ft 12 kts 213°
2026-04-24 10:06 55.62058 12.65003 25 ft 15 kts 213°
2026-04-24 10:06 55.61871 12.64789 23 ft 16 kts 213°
2026-04-24 10:06 55.61768 12.64667 25 ft 19 kts 213°
2026-04-24 10:07 55.61651 12.64535 23 ft 20 kts 213°
2026-04-24 10:07 55.61535 12.64403 24 ft 20 kts 213°
2026-04-24 10:07 55.61423 12.64273 27 ft 19 kts 212°
2026-04-24 10:07 55.61314 12.64148 23 ft 18 kts 213°
2026-04-24 10:08 55.61209 12.64028 23 ft 18 kts 212°
2026-04-24 10:08 55.61097 12.63900 23 ft 20 kts 213°
2026-04-24 10:08 55.60975 12.63758 23 ft 22 kts 214°
2026-04-24 10:08 55.60858 12.63624 23 ft 14 kts 213°
2026-04-24 10:09 55.60787 12.63605 26 ft 11 kts 148°
2026-04-24 10:09 55.60737 12.63702 27 ft 11 kts 130°
2026-04-24 10:09 55.60689 12.63802 29 ft 9 kts 130°
2026-04-24 10:09 55.60679 12.63871 25 ft 6 kts 55°
2026-04-24 10:10 55.60695 12.63897 25 ft 0 kts 41°
2026-04-24 10:11 55.60736 12.63960 24 ft 31 kts 41°
2026-04-24 10:11 55.61074 12.64483 22 ft 97 kts 41°
2026-04-24 10:12 55.61721 12.65486 23 ft 149 kts 41°
2026-04-24 10:12 55.62572 12.66765 428 ft 162 kts 40°
2026-04-24 10:12 55.63443 12.68151 1060 ft 173 kts 37°
2026-04-24 10:12 55.64379 12.69584 1552 ft 191 kts 37°
2026-04-24 10:13 55.65454 12.71216 1793 ft 215 kts 37°
2026-04-24 10:13 55.66651 12.73013 2033 ft 239 kts 36°
2026-04-24 10:13 55.67960 12.74971 2620 ft 247 kts 37°
2026-04-24 10:13 55.69259 12.76918 3528 ft 245 kts 36°
2026-04-24 10:14 55.70411 12.79215 4209 ft 259 kts 59°
2026-04-24 10:14 55.70804 12.82383 4974 ft 273 kts 88°
2026-04-24 10:14 55.70316 12.85692 5709 ft 285 kts 114°
2026-04-24 10:14 55.69054 12.88455 6436 ft 295 kts 140°
2026-04-24 10:15 55.67250 12.90232 7141 ft 299 kts 157°
2026-04-24 10:15 55.65296 12.91569 7814 ft 303 kts 159°
2026-04-24 10:15 55.63296 12.92838 8492 ft 307 kts 160°
2026-04-24 10:15 55.61271 12.94107 9177 ft 311 kts 160°
2026-04-24 10:16 55.59223 12.95396 9889 ft 314 kts 160°
2026-04-24 10:16 55.57150 12.96714 10444 ft 322 kts 160°
2026-04-24 10:16 55.54970 12.98111 10607 ft 344 kts 160°
2026-04-24 10:16 55.52664 12.99594 10899 ft 359 kts 160°
2026-04-24 10:17 55.50298 13.01122 11449 ft 365 kts 159°
2026-04-24 10:17 55.47906 13.02671 12085 ft 368 kts 159°
2026-04-24 10:17 55.45488 13.04235 12738 ft 372 kts 159°
2026-04-24 10:17 55.43046 13.05815 13399 ft 376 kts 160°
2026-04-24 10:18 55.40578 13.07411 14040 ft 380 kts 160°
2026-04-24 10:18 55.38082 13.09024 14682 ft 383 kts 160°
2026-04-24 10:18 55.35572 13.10642 15362 ft 385 kts 160°
2026-04-24 10:18 55.33047 13.12269 16030 ft 388 kts 160°
2026-04-24 10:19 55.30505 13.13904 16655 ft 391 kts 161°
2026-04-24 10:19 55.27971 13.15532 17285 ft 395 kts 161°
2026-04-24 10:19 55.25381 13.17193 17928 ft 398 kts 161°
2026-04-24 10:19 55.22769 13.18866 18535 ft 401 kts 161°
2026-04-24 10:20 55.20139 13.20549 19069 ft 405 kts 162°
2026-04-24 10:20 55.17481 13.22246 19592 ft 408 kts 162°
2026-04-24 10:20 55.14793 13.23960 20049 ft 414 kts 162°
2026-04-24 10:20 55.12062 13.25699 20466 ft 421 kts 162°
2026-04-24 10:21 55.09300 13.27456 20972 ft 424 kts 162°
2026-04-24 10:21 55.06514 13.29227 21469 ft 428 kts 162°
2026-04-24 10:21 55.03704 13.31009 21959 ft 431 kts 162°
2026-04-24 10:21 55.00876 13.32802 22460 ft 434 kts 163°
2026-04-24 10:22 54.98023 13.34608 22936 ft 438 kts 163°
2026-04-24 10:22 54.95145 13.36425 23394 ft 442 kts 163°
2026-04-24 10:22 54.92241 13.38226 23829 ft 444 kts 166°
2026-04-24 10:22 54.89246 13.39507 24217 ft 442 kts 175°
2026-04-24 10:23 54.86204 13.40298 24665 ft 442 kts 176°
2026-04-24 10:23 54.83150 13.41024 25090 ft 444 kts 176°
2026-04-24 10:23 54.80080 13.41772 25476 ft 447 kts 176°
2026-04-24 10:23 54.76995 13.42566 25845 ft 449 kts 175°
2026-04-24 10:24 54.73903 13.43392 26238 ft 451 kts 175°
2026-04-24 10:24 54.70793 13.44233 26628 ft 453 kts 175°
2026-04-24 10:24 54.67670 13.45073 26995 ft 455 kts 175°
2026-04-24 10:24 54.64533 13.45909 27352 ft 458 kts 176°
2026-04-24 10:25 54.61417 13.46735 27703 ft 460 kts 176°
2026-04-24 10:25 54.58248 13.47574 28054 ft 462 kts 176°
2026-04-24 10:25 54.55065 13.48417 28398 ft 464 kts 176°
2026-04-24 10:25 54.51867 13.49263 28730 ft 466 kts 176°
2026-04-24 10:26 54.48653 13.50104 29027 ft 468 kts 176°
2026-04-24 10:26 54.45422 13.50928 29344 ft 471 kts 176°
2026-04-24 10:26 54.42175 13.51747 29642 ft 473 kts 176°
2026-04-24 10:26 54.38912 13.52571 29951 ft 475 kts 176°
2026-04-24 10:27 54.35635 13.53401 30239 ft 477 kts 176°
2026-04-24 10:27 54.32359 13.54453 30460 ft 483 kts 169°
2026-04-24 10:27 54.29157 13.56327 30672 ft 491 kts 159°
2026-04-24 10:27 54.26088 13.58939 30923 ft 494 kts 155°
2026-04-24 10:28 54.23041 13.61668 31167 ft 494 kts 155°
2026-04-24 10:28 54.20000 13.64370 31563 ft 492 kts 156°
2026-04-24 10:28 54.16955 13.67010 31914 ft 490 kts 156°
2026-04-24 10:28 54.13903 13.69605 32175 ft 491 kts 157°
2026-04-24 10:29 54.10877 13.72328 32405 ft 494 kts 151°
2026-04-24 10:29 54.08073 13.75738 32677 ft 497 kts 140°
2026-04-24 10:29 54.05569 13.79807 33009 ft 497 kts 136°
2026-04-24 10:29 54.03128 13.83970 33314 ft 497 kts 136°
2026-04-24 10:30 54.00650 13.88092 33469 ft 500 kts 137°
2026-04-24 10:30 53.98029 13.91969 33635 ft 499 kts 150°
2026-04-24 10:30 53.94928 13.94456 33897 ft 490 kts 167°
2026-04-24 10:30 53.91633 13.95582 34215 ft 478 kts 181°
2026-04-24 10:31 53.88394 13.95387 34437 ft 469 kts 193°
2026-04-24 10:31 53.85125 13.94638 34646 ft 468 kts 194°
2026-04-24 10:31 53.81946 13.93836 34823 ft 469 kts 194°
2026-04-24 10:31 53.78723 13.93013 35050 ft 468 kts 194°
2026-04-24 10:32 53.75504 13.92211 35305 ft 467 kts 194°
2026-04-24 10:32 53.72286 13.91435 35538 ft 467 kts 194°
2026-04-24 10:32 53.69065 13.90679 35738 ft 467 kts 194°
2026-04-24 10:32 53.65839 13.89938 35905 ft 468 kts 193°
2026-04-24 10:33 53.62618 13.89206 36121 ft 467 kts 193°
2026-04-24 10:33 53.59397 13.88479 36343 ft 467 kts 193°
2026-04-24 10:33 53.56182 13.87755 36540 ft 466 kts 193°
2026-04-24 10:33 53.52964 13.87031 36731 ft 466 kts 193°
2026-04-24 10:34 53.49748 13.86307 36925 ft 466 kts 193°
2026-04-24 10:34 53.46536 13.85584 37109 ft 466 kts 193°
2026-04-24 10:34 53.43313 13.84858 37082 ft 469 kts 193°
2026-04-24 10:35 53.36857 13.83411 37105 ft 467 kts 193°
2026-04-24 10:35 53.30445 13.81980 37117 ft 463 kts 193°
2026-04-24 10:36 53.24075 13.80561 37120 ft 461 kts 193°
2026-04-24 10:36 53.17726 13.79148 37104 ft 459 kts 193°
2026-04-24 10:37 53.11396 13.77744 37124 ft 459 kts 193°
2026-04-24 10:37 53.05066 13.76344 37124 ft 460 kts 193°
2026-04-24 10:38 52.98714 13.74943 37130 ft 461 kts 193°
2026-04-24 10:38 52.92339 13.73542 37126 ft 463 kts 192°
2026-04-24 10:39 52.85946 13.72142 37136 ft 464 kts 192°
2026-04-24 10:39 52.79531 13.70742 37135 ft 466 kts 192°
2026-04-24 10:40 52.73089 13.69340 37137 ft 468 kts 192°
2026-04-24 10:40 52.66675 13.67948 37146 ft 469 kts 192°
2026-04-24 10:41 52.60202 13.66547 37146 ft 470 kts 192°
2026-04-24 10:41 52.53716 13.65147 37153 ft 470 kts 192°
2026-04-24 10:42 52.47229 13.63751 37154 ft 470 kts 192°
2026-04-24 10:42 52.40749 13.62365 37152 ft 469 kts 191°
2026-04-24 10:43 52.34196 13.61967 37162 ft 472 kts 183°
2026-04-24 10:43 52.27624 13.62152 37150 ft 472 kts 182°
2026-04-24 10:44 52.21068 13.62305 37139 ft 471 kts 183°
2026-04-24 10:44 52.14530 13.62376 37147 ft 469 kts 183°
2026-04-24 10:45 52.08009 13.62415 37152 ft 468 kts 183°
2026-04-24 10:45 52.01503 13.62452 37150 ft 468 kts 183°
2026-04-24 10:46 51.94997 13.62491 37143 ft 467 kts 183°
2026-04-24 10:46 51.88503 13.62532 37156 ft 466 kts 183°
2026-04-24 10:47 51.82010 13.62574 37160 ft 467 kts 183°
2026-04-24 10:47 51.75517 13.62615 37156 ft 467 kts 183°
2026-04-24 10:48 51.69017 13.62655 37150 ft 467 kts 182°
2026-04-24 10:48 51.62558 13.62697 37170 ft 468 kts 182°
2026-04-24 10:49 51.56042 13.62737 37170 ft 469 kts 182°
2026-04-24 10:49 51.49512 13.62778 37172 ft 470 kts 182°
2026-04-24 10:50 51.43031 13.62813 37170 ft 471 kts 182°
2026-04-24 10:50 51.37486 13.62819 37176 ft 472 kts 182°
2026-04-24 10:51 51.30913 13.62823 37180 ft 473 kts 182°
2026-04-24 10:51 51.25436 13.62828 37186 ft 474 kts 182°
2026-04-24 10:52 51.18797 13.62836 37184 ft 474 kts 182°
2026-04-24 10:52 51.12197 13.62846 37184 ft 474 kts 182°
2026-04-24 10:53 51.05593 13.62855 37188 ft 474 kts 182°
2026-04-24 10:53 50.98994 13.62864 37179 ft 474 kts 181°
2026-04-24 10:54 50.92403 13.62873 37178 ft 473 kts 181°
2026-04-24 10:54 50.85870 13.62881 37162 ft 472 kts 181°
2026-04-24 10:55 50.79304 13.62890 37144 ft 471 kts 181°
2026-04-24 10:55 50.72754 13.62896 37140 ft 470 kts 182°
2026-04-24 10:56 50.66298 13.61829 37145 ft 465 kts 191°
2026-04-24 10:56 50.59929 13.60098 37131 ft 463 kts 192°
2026-04-24 10:57 50.53576 13.58393 37131 ft 463 kts 191°
2026-04-24 10:57 50.47219 13.56761 37122 ft 463 kts 191°
2026-04-24 10:58 50.40861 13.55164 37121 ft 463 kts 191°
2026-04-24 10:58 50.34500 13.53575 37114 ft 463 kts 191°
2026-04-24 10:59 50.28131 13.51987 37116 ft 464 kts 191°
2026-04-24 10:59 50.21754 13.50399 37110 ft 464 kts 191°
2026-04-24 11:00 50.15362 13.48811 37105 ft 465 kts 191°
2026-04-24 11:00 50.08962 13.47227 37105 ft 466 kts 191°
2026-04-24 11:01 50.02546 13.45641 37114 ft 467 kts 191°
2026-04-24 11:01 49.96121 13.44058 37106 ft 468 kts 191°
2026-04-24 11:02 49.89686 13.42477 37133 ft 469 kts 191°
2026-04-24 11:02 49.83239 13.40897 37131 ft 469 kts 190°
2026-04-24 11:03 49.76834 13.39332 37151 ft 469 kts 190°
2026-04-24 11:03 49.70384 13.37760 37159 ft 469 kts 190°
2026-04-24 11:04 49.63927 13.36191 37150 ft 470 kts 190°
2026-04-24 11:04 49.57478 13.34627 37152 ft 469 kts 190°
2026-04-24 11:05 49.51036 13.33070 37144 ft 468 kts 190°
2026-04-24 11:05 49.44600 13.31518 37137 ft 468 kts 190°
2026-04-24 11:06 49.38175 13.29972 37129 ft 467 kts 189°
2026-04-24 11:06 49.31772 13.28436 37121 ft 465 kts 189°
2026-04-24 11:07 49.22309 13.25392 37127 ft 462 kts 204°
2026-04-24 11:07 49.16555 13.21109 37129 ft 460 kts 208°
2026-04-24 11:08 49.10843 13.16718 37141 ft 460 kts 208°
2026-04-24 11:08 49.05110 13.12400 37137 ft 460 kts 207°
2026-04-24 11:09 48.99355 13.08117 37140 ft 460 kts 207°
2026-04-24 11:09 48.93632 13.03875 37155 ft 461 kts 207°
2026-04-24 11:10 48.87857 12.99602 37149 ft 462 kts 207°
2026-04-24 11:10 48.82080 12.95336 37156 ft 462 kts 207°
2026-04-24 11:11 48.76289 12.91071 37155 ft 463 kts 207°
2026-04-24 11:11 48.70267 12.87641 37158 ft 465 kts 193°
2026-04-24 11:12 48.63929 12.85670 37163 ft 465 kts 192°
2026-04-24 11:12 48.57574 12.83741 37159 ft 466 kts 192°
2026-04-24 11:13 48.51220 12.81749 37172 ft 466 kts 192°
2026-04-24 11:13 48.44865 12.79724 37169 ft 467 kts 192°
2026-04-24 11:14 48.38512 12.77696 37169 ft 467 kts 192°
2026-04-24 11:14 48.32158 12.75674 37167 ft 466 kts 192°
2026-04-24 11:15 48.25812 12.73662 37166 ft 466 kts 192°
2026-04-24 11:15 48.19478 12.71660 37169 ft 465 kts 192°
2026-04-24 11:16 48.13154 12.69666 37176 ft 464 kts 192°
2026-04-24 11:16 48.06838 12.67679 37169 ft 463 kts 192°
2026-04-24 11:17 48.00533 12.65701 37174 ft 463 kts 192°
2026-04-24 11:17 47.94232 12.63729 37169 ft 462 kts 192°
2026-04-24 11:18 47.87939 12.61764 37172 ft 462 kts 192°
2026-04-24 11:18 47.81644 12.59803 37169 ft 462 kts 192°
2026-04-24 11:19 47.75395 12.57862 37165 ft 462 kts 192°
2026-04-24 11:19 47.69096 12.55918 37183 ft 462 kts 190°
2026-04-24 11:20 47.62770 12.54100 37167 ft 463 kts 186°
2026-04-24 11:20 47.59556 12.53943 37152 ft 462 kts 175°
2026-04-24 11:20 47.56354 12.54239 37171 ft 461 kts 175°
2026-04-24 11:21 47.49945 12.54907 37169 ft 462 kts 174°
2026-04-24 11:21 47.43519 12.55533 37175 ft 463 kts 175°
2026-04-24 11:22 47.37079 12.56107 37162 ft 464 kts 175°
2026-04-24 11:22 47.30622 12.56661 37156 ft 465 kts 175°
2026-04-24 11:23 47.24175 12.57209 37160 ft 464 kts 175°
2026-04-24 11:23 47.17719 12.57759 37152 ft 465 kts 175°
2026-04-24 11:24 47.11261 12.58308 37152 ft 465 kts 175°
2026-04-24 11:24 47.04813 12.58852 37138 ft 464 kts 174°
2026-04-24 11:25 46.98371 12.59398 37134 ft 464 kts 174°
2026-04-24 11:25 46.91926 12.59949 37110 ft 464 kts 174°
2026-04-24 11:26 46.85486 12.60492 37127 ft 464 kts 174°
2026-04-24 11:26 46.79056 12.61031 37125 ft 463 kts 174°
2026-04-24 11:27 46.72672 12.61566 37116 ft 463 kts 174°
2026-04-24 11:27 46.66243 12.62104 37124 ft 463 kts 174°
2026-04-24 11:28 46.59811 12.62641 37133 ft 463 kts 174°
2026-04-24 11:28 46.53373 12.63181 37105 ft 464 kts 174°
2026-04-24 11:29 46.46918 12.63716 37092 ft 465 kts 174°
2026-04-24 11:29 46.40457 12.64250 37092 ft 465 kts 174°
2026-04-24 11:30 46.33997 12.64784 37106 ft 465 kts 174°
2026-04-24 11:30 46.27532 12.65318 37107 ft 466 kts 174°
2026-04-24 11:31 46.21057 12.65852 37110 ft 466 kts 174°
2026-04-24 11:31 46.14588 12.66383 37121 ft 465 kts 174°
2026-04-24 11:32 46.08131 12.66911 37115 ft 464 kts 174°
2026-04-24 11:32 46.01690 12.67438 37120 ft 463 kts 174°
2026-04-24 11:33 45.95262 12.67962 37119 ft 462 kts 174°
2026-04-24 11:33 45.88844 12.68485 37117 ft 462 kts 174°
2026-04-24 11:34 45.82431 12.69005 37133 ft 461 kts 174°
2026-04-24 11:34 45.76014 12.69526 37116 ft 462 kts 174°
2026-04-24 11:35 45.69595 12.70045 37109 ft 462 kts 174°
2026-04-24 11:35 45.63169 12.70563 37111 ft 463 kts 174°
2026-04-24 11:36 45.56731 12.71081 37106 ft 463 kts 174°
2026-04-24 11:36 45.50288 12.71598 37113 ft 464 kts 174°
2026-04-24 11:37 45.43840 12.72114 37122 ft 464 kts 173°
2026-04-24 11:37 45.37381 12.72630 37114 ft 465 kts 173°
2026-04-24 11:38 45.32015 12.73058 37112 ft 465 kts 173°
2026-04-24 11:38 45.25555 12.73572 37120 ft 465 kts 173°
2026-04-24 11:39 45.19092 12.74085 37124 ft 465 kts 173°
2026-04-24 11:39 45.12638 12.74596 37114 ft 464 kts 173°
2026-04-24 11:40 45.06187 12.75105 37119 ft 464 kts 173°
2026-04-24 11:40 44.99736 12.75614 37117 ft 464 kts 173°
2026-04-24 11:41 44.93286 12.76121 37117 ft 464 kts 173°
2026-04-24 11:41 44.86841 12.76627 37121 ft 464 kts 173°
2026-04-24 11:42 44.80396 12.77132 37123 ft 464 kts 173°
2026-04-24 11:42 44.73952 12.77636 37117 ft 464 kts 173°
2026-04-24 11:43 44.67506 12.78138 37120 ft 464 kts 173°
2026-04-24 11:43 44.61054 12.78640 37120 ft 464 kts 173°
2026-04-24 11:44 44.54608 12.79141 37121 ft 464 kts 173°
2026-04-24 11:44 44.48198 12.79637 37116 ft 464 kts 173°
2026-04-24 11:45 44.41743 12.80136 37122 ft 464 kts 173°
2026-04-24 11:45 44.35292 12.80633 37144 ft 465 kts 173°
2026-04-24 11:46 44.28831 12.81130 37122 ft 465 kts 173°
2026-04-24 11:46 44.22366 12.81627 37114 ft 465 kts 173°
2026-04-24 11:47 44.15899 12.82122 37109 ft 465 kts 173°
2026-04-24 11:47 44.09433 12.82616 37107 ft 465 kts 173°
2026-04-24 11:48 44.02971 12.83109 37107 ft 465 kts 173°
2026-04-24 11:48 43.96514 12.83600 37105 ft 465 kts 173°
2026-04-24 11:49 43.90055 12.84090 37108 ft 465 kts 173°
2026-04-24 11:49 43.83596 12.84580 37114 ft 465 kts 173°
2026-04-24 11:50 43.77131 12.85069 37111 ft 465 kts 173°
2026-04-24 11:50 43.70672 12.85556 37116 ft 465 kts 173°
2026-04-24 11:51 43.64215 12.86042 37117 ft 465 kts 173°
2026-04-24 11:51 43.57752 12.86527 37112 ft 465 kts 173°
2026-04-24 11:52 43.51286 12.87012 37124 ft 465 kts 173°
2026-04-24 11:52 43.44824 12.87495 37114 ft 465 kts 173°
2026-04-24 11:53 43.38360 12.87978 37111 ft 465 kts 173°
2026-04-24 11:53 43.31945 12.88455 37113 ft 465 kts 174°
2026-04-24 11:54 43.25495 12.88935 37139 ft 464 kts 174°
2026-04-24 11:54 43.19058 12.89409 37146 ft 462 kts 174°
2026-04-24 11:55 43.12626 12.89885 37110 ft 463 kts 174°
2026-04-24 11:55 43.06210 12.90366 37093 ft 461 kts 174°
2026-04-24 11:56 42.99800 12.90837 37125 ft 462 kts 174°
2026-04-24 11:56 42.93380 12.91307 37132 ft 463 kts 174°
2026-04-24 11:57 42.86943 12.91779 37130 ft 464 kts 174°
2026-04-24 11:57 42.80479 12.92253 37116 ft 465 kts 174°
2026-04-24 11:58 42.74008 12.92725 37126 ft 466 kts 174°
2026-04-24 11:58 42.67525 12.93198 37142 ft 467 kts 174°
2026-04-24 11:59 42.61035 12.93670 37139 ft 467 kts 174°
2026-04-24 11:59 42.54552 12.94141 37156 ft 467 kts 174°
2026-04-24 12:00 42.48071 12.94610 37158 ft 466 kts 174°
2026-04-24 12:00 42.41607 12.95078 37157 ft 465 kts 174°
2026-04-24 12:01 42.35202 12.95540 37157 ft 464 kts 174°
2026-04-24 12:01 42.28763 12.96004 37149 ft 463 kts 174°
2026-04-24 12:02 42.22336 12.96466 37136 ft 462 kts 174°
2026-04-24 12:02 42.15921 12.96926 37118 ft 461 kts 174°
2026-04-24 12:03 42.09517 12.97414 37119 ft 460 kts 173°
2026-04-24 12:03 42.03148 12.98273 37124 ft 460 kts 171°
2026-04-24 12:04 41.96791 12.99255 37127 ft 461 kts 171°
2026-04-24 12:04 41.90411 13.00206 37127 ft 461 kts 171°
2026-04-24 12:05 41.84019 13.01126 37138 ft 462 kts 171°
2026-04-24 12:05 41.77618 13.02036 37127 ft 463 kts 172°
2026-04-24 12:06 41.71211 13.02945 37130 ft 463 kts 171°
2026-04-24 12:06 41.64804 13.03854 37136 ft 463 kts 172°
2026-04-24 12:07 41.58396 13.04762 37123 ft 463 kts 172°
2026-04-24 12:07 41.51999 13.05666 37126 ft 462 kts 172°
2026-04-24 12:08 41.45625 13.06565 37145 ft 459 kts 172°
2026-04-24 12:08 41.39271 13.07460 37133 ft 458 kts 172°
2026-04-24 12:09 41.32937 13.08351 37143 ft 457 kts 172°
2026-04-24 12:09 41.26618 13.09253 37143 ft 456 kts 172°
2026-04-24 12:10 41.20313 13.10161 37151 ft 456 kts 172°
2026-04-24 12:11 41.10908 13.11511 37140 ft 455 kts 172°
2026-04-24 12:11 41.04616 13.12410 37147 ft 454 kts 172°
2026-04-24 12:12 40.98328 13.13307 37153 ft 455 kts 172°
2026-04-24 12:12 40.92034 13.14202 37152 ft 455 kts 172°
2026-04-24 12:13 40.85734 13.15097 37147 ft 456 kts 172°
2026-04-24 12:13 40.79426 13.15992 37151 ft 456 kts 172°
2026-04-24 12:14 40.73108 13.16886 37145 ft 457 kts 172°
2026-04-24 12:14 40.66779 13.17779 37147 ft 457 kts 172°
2026-04-24 12:15 40.60446 13.18672 37155 ft 458 kts 172°
2026-04-24 12:15 40.54109 13.19563 37145 ft 458 kts 173°
2026-04-24 12:16 40.47765 13.20454 37159 ft 459 kts 173°
2026-04-24 12:16 40.41419 13.21343 37142 ft 459 kts 173°
2026-04-24 12:17 40.35067 13.22232 37144 ft 459 kts 173°
2026-04-24 12:17 40.28719 13.23118 37156 ft 459 kts 173°
2026-04-24 12:18 40.22370 13.24003 37145 ft 459 kts 173°
2026-04-24 12:18 40.16018 13.24886 37145 ft 459 kts 173°
2026-04-24 12:19 40.09665 13.25769 37147 ft 459 kts 173°
2026-04-24 12:19 40.03311 13.26649 37147 ft 459 kts 173°
2026-04-24 12:20 39.96957 13.27528 37150 ft 459 kts 173°
2026-04-24 12:20 39.90601 13.28405 37154 ft 459 kts 173°
2026-04-24 12:21 39.84244 13.29281 37148 ft 459 kts 173°
2026-04-24 12:21 39.77887 13.30156 37148 ft 459 kts 173°
2026-04-24 12:22 39.71568 13.31023 37163 ft 459 kts 173°
2026-04-24 12:22 39.65208 13.31895 37147 ft 460 kts 173°
2026-04-24 12:23 39.58846 13.32765 37150 ft 460 kts 173°
2026-04-24 12:23 39.52481 13.33634 37156 ft 460 kts 173°
2026-04-24 12:24 39.46112 13.34502 37148 ft 460 kts 174°
2026-04-24 12:24 39.39737 13.35369 37158 ft 461 kts 174°
2026-04-24 12:25 39.33361 13.36235 37147 ft 461 kts 174°
2026-04-24 12:25 39.26977 13.37100 37147 ft 461 kts 174°
2026-04-24 12:26 39.20591 13.37964 37145 ft 462 kts 174°
2026-04-24 12:26 39.15278 13.38681 37142 ft 462 kts 174°
2026-04-24 12:27 39.08881 13.39544 37147 ft 462 kts 174°
2026-04-24 12:27 39.02486 13.40404 37140 ft 462 kts 174°
2026-04-24 12:28 38.96085 13.41264 37154 ft 462 kts 174°
2026-04-24 12:28 38.89679 13.42123 37150 ft 463 kts 174°
2026-04-24 12:29 38.83278 13.42980 37140 ft 463 kts 174°
2026-04-24 12:29 38.76872 13.43836 37149 ft 463 kts 174°
2026-04-24 12:30 38.70466 13.44690 37144 ft 463 kts 174°
2026-04-24 12:30 38.64066 13.45542 37149 ft 463 kts 174°
2026-04-24 12:31 38.57656 13.46394 37147 ft 463 kts 174°
2026-04-24 12:31 38.51246 13.47244 37141 ft 463 kts 175°
2026-04-24 12:32 38.44836 13.48093 37149 ft 463 kts 175°
2026-04-24 12:32 38.38423 13.48940 37133 ft 463 kts 175°
2026-04-24 12:33 38.32009 13.49787 37154 ft 464 kts 175°
2026-04-24 12:33 38.25591 13.50632 37143 ft 464 kts 175°
2026-04-24 12:34 38.19172 13.51476 37128 ft 464 kts 175°
2026-04-24 12:34 38.12743 13.52320 37136 ft 464 kts 175°
2026-04-24 12:35 38.06355 13.53157 37130 ft 464 kts 175°
2026-04-24 12:35 38.03130 13.53578 36832 ft 468 kts 175°
2026-04-24 12:35 37.99907 13.54000 36533 ft 462 kts 175°
2026-04-24 12:35 37.96726 13.54416 36122 ft 458 kts 175°
2026-04-24 12:36 37.93572 13.54828 35734 ft 454 kts 175°
2026-04-24 12:36 37.90443 13.55236 35335 ft 450 kts 175°
2026-04-24 12:36 37.87345 13.55640 34945 ft 446 kts 175°
2026-04-24 12:36 37.84266 13.56041 34549 ft 443 kts 175°
2026-04-24 12:37 37.81209 13.56438 34169 ft 440 kts 175°
2026-04-24 12:37 37.78173 13.56833 33727 ft 437 kts 175°
2026-04-24 12:37 37.75162 13.57223 33312 ft 434 kts 175°
2026-04-24 12:37 37.72174 13.57611 32928 ft 429 kts 175°
2026-04-24 12:38 37.69218 13.57994 32536 ft 426 kts 175°
2026-04-24 12:38 37.66283 13.58374 32155 ft 422 kts 175°
2026-04-24 12:38 37.63370 13.58751 31781 ft 419 kts 175°
2026-04-24 12:39 37.54783 13.59861 30693 ft 409 kts 175°
2026-04-24 12:39 37.51959 13.60225 30327 ft 406 kts 175°
2026-04-24 12:39 37.49163 13.60585 29946 ft 403 kts 175°
2026-04-24 12:40 37.46388 13.60943 29533 ft 399 kts 175°
2026-04-24 12:40 37.43638 13.61297 29176 ft 395 kts 175°
2026-04-24 12:40 37.40917 13.61647 28807 ft 391 kts 175°
2026-04-24 12:40 37.38225 13.61993 28422 ft 387 kts 175°
2026-04-24 12:41 37.35557 13.62336 28077 ft 383 kts 175°
2026-04-24 12:41 37.32914 13.62676 27704 ft 381 kts 175°
2026-04-24 12:41 37.30291 13.63012 27354 ft 377 kts 175°
2026-04-24 12:41 37.27688 13.63346 26997 ft 375 kts 175°
2026-04-24 12:42 37.25102 13.63677 26645 ft 372 kts 175°
2026-04-24 12:42 37.22568 13.64001 26303 ft 370 kts 175°
2026-04-24 12:42 37.20017 13.64327 25951 ft 367 kts 175°
2026-04-24 12:42 37.17483 13.64651 25609 ft 365 kts 175°
2026-04-24 12:43 37.14964 13.64973 25266 ft 363 kts 176°
2026-04-24 12:43 37.12480 13.65410 25129 ft 358 kts 168°
2026-04-24 12:43 37.10131 13.66361 25124 ft 353 kts 159°
2026-04-24 12:43 37.07892 13.67513 25101 ft 343 kts 158°
2026-04-24 12:44 37.05728 13.68653 25078 ft 330 kts 158°
2026-04-24 12:44 37.03641 13.69754 24810 ft 322 kts 158°
2026-04-24 12:44 37.01589 13.70830 24436 ft 318 kts 158°
2026-04-24 12:44 36.99540 13.71897 23796 ft 324 kts 159°
2026-04-24 12:45 36.97386 13.73010 22516 ft 348 kts 159°
2026-04-24 12:45 36.95167 13.74154 22344 ft 340 kts 159°
2026-04-24 12:45 36.92970 13.75285 21998 ft 341 kts 159°
2026-04-24 12:45 36.90780 13.76410 21663 ft 341 kts 159°
2026-04-24 12:46 36.88573 13.77542 21346 ft 346 kts 159°
2026-04-24 12:46 36.86322 13.78694 21013 ft 352 kts 159°
2026-04-24 12:46 36.84055 13.79855 20667 ft 351 kts 159°
2026-04-24 12:46 36.81802 13.81008 20323 ft 349 kts 159°
2026-04-24 12:47 36.79562 13.82153 19993 ft 347 kts 159°
2026-04-24 12:47 36.77335 13.83291 19658 ft 345 kts 159°
2026-04-24 12:47 36.75123 13.84421 19336 ft 343 kts 159°
2026-04-24 12:47 36.72922 13.85544 19009 ft 341 kts 159°
2026-04-24 12:48 36.70731 13.86660 18683 ft 340 kts 159°
2026-04-24 12:48 36.68544 13.87775 18350 ft 339 kts 159°
2026-04-24 12:48 36.66368 13.88883 17977 ft 337 kts 158°
2026-04-24 12:48 36.64229 13.89971 17631 ft 336 kts 158°
2026-04-24 12:49 36.62074 13.91068 17291 ft 334 kts 158°
2026-04-24 12:49 36.59932 13.92157 16971 ft 332 kts 158°
2026-04-24 12:49 36.57802 13.93240 16643 ft 330 kts 158°
2026-04-24 12:49 36.55686 13.94314 16324 ft 328 kts 157°
2026-04-24 12:50 36.53583 13.95382 16007 ft 326 kts 157°
2026-04-24 12:50 36.51491 13.96442 15695 ft 324 kts 157°
2026-04-24 12:50 36.49407 13.97498 15380 ft 322 kts 157°
2026-04-24 12:50 36.47334 13.98547 15066 ft 321 kts 156°
2026-04-24 12:51 36.45271 13.99590 14756 ft 320 kts 156°
2026-04-24 12:51 36.43215 14.00628 14442 ft 318 kts 156°
2026-04-24 12:51 36.41167 14.01663 14131 ft 317 kts 156°
2026-04-24 12:51 36.39124 14.02695 13799 ft 317 kts 156°
2026-04-24 12:52 36.37087 14.03723 13448 ft 316 kts 156°
2026-04-24 12:52 36.35058 14.04748 13115 ft 314 kts 156°
2026-04-24 12:52 36.33038 14.05766 12797 ft 313 kts 156°
2026-04-24 12:52 36.31026 14.06780 12471 ft 311 kts 156°
2026-04-24 12:53 36.29027 14.07787 12166 ft 309 kts 156°
2026-04-24 12:53 36.27036 14.08789 11855 ft 308 kts 156°
2026-04-24 12:53 36.25059 14.09785 11545 ft 306 kts 156°
2026-04-24 12:53 36.23087 14.10776 11239 ft 305 kts 156°
2026-04-24 12:54 36.21124 14.11763 10930 ft 304 kts 156°
2026-04-24 12:54 36.19168 14.12746 10626 ft 303 kts 156°
2026-04-24 12:54 36.17217 14.13725 10343 ft 301 kts 156°
2026-04-24 12:54 36.15305 14.14685 10218 ft 293 kts 156°
2026-04-24 12:55 36.13429 14.15626 9980 ft 290 kts 156°
2026-04-24 12:55 36.11561 14.16562 9676 ft 289 kts 156°
2026-04-24 12:55 36.09703 14.17494 9382 ft 287 kts 156°
2026-04-24 12:55 36.07855 14.18419 9095 ft 286 kts 156°
2026-04-24 12:56 36.06017 14.19339 8825 ft 285 kts 156°
2026-04-24 12:56 36.04154 14.20173 8515 ft 286 kts 168°
2026-04-24 12:56 36.02181 14.20112 8241 ft 284 kts 191°
2026-04-24 12:56 36.00264 14.19562 7975 ft 282 kts 194°
2026-04-24 12:57 35.98365 14.18971 7690 ft 281 kts 194°
2026-04-24 12:57 35.96476 14.18383 7413 ft 280 kts 194°
2026-04-24 12:57 35.94595 14.17805 7138 ft 278 kts 193°
2026-04-24 12:57 35.92717 14.17235 6865 ft 277 kts 193°
2026-04-24 12:58 35.90848 14.16673 6584 ft 276 kts 193°
2026-04-24 12:58 35.88973 14.16113 6254 ft 277 kts 193°
2026-04-24 12:58 35.87101 14.15556 5960 ft 276 kts 193°
2026-04-24 12:58 35.85242 14.15003 5737 ft 272 kts 193°
2026-04-24 12:59 35.83411 14.14584 5599 ft 264 kts 178°
2026-04-24 12:59 35.81679 14.15134 5392 ft 256 kts 151°
2026-04-24 12:59 35.80185 14.16298 5157 ft 253 kts 143°
2026-04-24 12:59 35.78766 14.17564 4834 ft 255 kts 141°
2026-04-24 13:00 35.77355 14.18852 4666 ft 249 kts 142°
2026-04-24 13:00 35.75973 14.20095 4554 ft 243 kts 142°
2026-04-24 13:00 35.74610 14.21316 4491 ft 240 kts 142°
2026-04-24 13:00 35.73346 14.22588 4402 ft 229 kts 126°
2026-04-24 13:01 35.72851 14.24317 4360 ft 210 kts 83°
2026-04-24 13:01 35.73339 14.25935 4171 ft 201 kts 56°
2026-04-24 13:01 35.74067 14.27393 3913 ft 199 kts 56°
2026-04-24 13:01 35.74819 14.28809 3620 ft 197 kts 54°
2026-04-24 13:02 35.75590 14.30184 3366 ft 194 kts 53°
2026-04-24 13:02 35.76363 14.31534 3099 ft 192 kts 52°
2026-04-24 13:02 35.77131 14.32864 2862 ft 189 kts 52°
2026-04-24 13:02 35.77887 14.34171 2611 ft 186 kts 53°
2026-04-24 13:03 35.78631 14.35457 2366 ft 182 kts 52°
2026-04-24 13:03 35.79359 14.36715 2110 ft 178 kts 53°
2026-04-24 13:03 35.80068 14.37939 1874 ft 172 kts 53°
2026-04-24 13:03 35.80743 14.39105 1627 ft 162 kts 53°
2026-04-24 13:04 35.81356 14.40183 1579 ft 147 kts 53°
2026-04-24 13:04 35.81947 14.41237 1373 ft 151 kts 54°
2026-04-24 13:04 35.82564 14.42282 1151 ft 149 kts 51°
2026-04-24 13:04 35.83163 14.43287 972 ft 147 kts 53°
2026-04-24 13:05 35.83741 14.44333 723 ft 147 kts 53°
2026-04-24 13:05 35.84348 14.45345 514 ft 147 kts 52°
2026-04-24 13:05 35.84943 14.46360 317 ft 143 kts 52°
2026-04-24 13:05 35.85486 14.47285 272 ft 121 kts 54°
2026-04-24 13:06 35.85741 14.47726 271 ft 25 kts 54°
2026-04-24 13:06 35.85840 14.47894 271 ft 23 kts 53°
2026-04-24 13:06 35.85931 14.48043 266 ft 18 kts 53°
2026-04-24 13:06 35.85965 14.48135 274 ft 12 kts 112°
2026-04-24 13:07 35.85892 14.48159 271 ft 11 kts 175°
2026-04-24 13:07 35.85816 14.48173 272 ft 11 kts 169°
2026-04-24 13:07 35.85742 14.48188 271 ft 11 kts 171°
2026-04-24 13:07 35.85669 14.48202 271 ft 11 kts 172°
2026-04-24 13:08 35.85583 14.48218 271 ft 13 kts 172°
2026-04-24 13:08 35.85541 14.48268 271 ft 8 kts 115°
2026-04-24 13:08 35.85506 14.48325 271 ft 8 kts 132°
2026-04-24 13:09 35.85423 14.48426 271 ft 8 kts 134°
2026-04-24 13:09 35.85384 14.48477 271 ft 8 kts 133°
2026-04-24 13:09 35.85347 14.48526 271 ft 8 kts 133°
2026-04-24 13:09 35.85330 14.48547 271 ft 1 kts 137°
2026-04-24 13:10 35.85327 14.48561 271 ft 3 kts 89°
2026-04-24 13:10 35.85342 14.48572 273 ft 3 kts
2026-04-24 13:10 35.85363 14.48572 271 ft 3 kts
2026-04-24 13:10 35.85367 14.48572 271 ft 0 kts